Austin, TX

2:29 PM CDT on October 22, 2017 (GMT -0500)
Austin

Weather History for KATT - July, 2014

Change the Weather History Date:

Saturday, July 19, 2014

  Actual Average Record
Temperature  
Mean Temperature 78 °F 85 °F  
Max Temperature 86 °F 96 °F 105 °F (1951)
Min Temperature 70 °F 75 °F 68 °F (1947)
Degree Days  
Heating Degree Days 0 0  
Month to date heating degree days 0 0  
Since 1 June heating degree days 0 0  
Since 1 July heating degree days 0 0  
Cooling Degree Days 13 20  
Month to date cooling degree days 353 371  
Year to date cooling degree days 1446 1500  
Since 1 June cooling degree days 872 887  
Growing Degree Days 27 (Base 50)    
Moisture  
Dew Point 68 °F    
Average Humidity 76    
Maximum Humidity 90    
Minimum Humidity 61    
Precipitation  
Precipitation 0.00 in 0.05 in 4.85 in (1979)
Month to date precipitation 5.49 1.24  
Year to date precipitation 19.65 19.10  
Snow  
Snow 0.00 in - - ()
Month to date snowfall 0.0  
Since 1 June snowfall 0.0  
Since 1 July snowfall 0.0  
Snow Depth 0.00 in    
Sea Level Pressure  
Sea Level Pressure 29.99 in    
Wind  
Wind Speed 2 mph (East)    
Max Wind Speed 8 mph    
Max Gust Speed 11 mph    
Visibility 9 miles    
Events      
T = Trace of Precipitation, MM = Missing Value Source: NWS Daily Summary

Daily Weather History Graph

Daily Weather History Graph

Search for Another Location

Airport or City:

Trip Planner

Search our weather history database for the weather conditions in past years. The results will help you decide how hot, cold, wet, or windy it might be!

Date:

Astronomy

Jul. 19, 2014 Rise Set
Actual Time 6:41 AM CDT 8:32 PM CDT
Civil Twilight 6:15 AM CDT 8:59 PM CDT
Nautical Twilight 5:42 AM CDT 9:31 PM CDT
Astronomical Twilight 5:08 AM CDT 10:05 PM CDT
Moon 1:05 AM CDT (7/19) 2:25 PM CDT (7/19)
Length of Visible Light 14h 44m
Length of Day
13h 50m
Last Quarter, 43% of the Moon is Illuminated
Jul 19
Last Quarter
Jul 26
New
Aug 3
First Quarter
Aug 10
Full
Aug 17
Last Quarter

Hourly Weather History & Observations

Time (CDT) Temp. Heat Index Dew Point Humidity Pressure Visibility Wind Dir Wind Speed Gust Speed Precip Events Conditions
12:51 AM 73.0 °F - 66.9 °F 81% 29.98 in 10.0 mi Calm Calm - N/A   Mostly Cloudy
1:51 AM 73.0 °F - 66.9 °F 81% 29.98 in 10.0 mi Calm Calm - N/A   Overcast
2:51 AM 72.0 °F - 66.9 °F 84% 29.98 in 10.0 mi Variable 3.5 mph - N/A   Overcast
3:51 AM 72.0 °F - 68.0 °F 87% 29.98 in 9.0 mi Calm Calm - N/A   Overcast
4:51 AM 71.1 °F - 66.0 °F 84% 29.99 in 9.0 mi Variable 3.5 mph - N/A   Overcast
5:51 AM 73.0 °F - 66.0 °F 79% 29.99 in 9.0 mi NE 3.5 mph - N/A   Overcast
6:51 AM 70.0 °F - 66.0 °F 87% 30.01 in 8.0 mi Calm Calm - N/A   Overcast
7:00 AM - - - N/A% - - North - - N/A   Unknown
7:33 AM 71.1 °F - 66.0 °F 84% 30.03 in 6.0 mi Calm Calm - N/A   Haze
7:51 AM 72.0 °F - 66.9 °F 84% 30.01 in 6.0 mi Calm Calm - N/A   Haze
8:51 AM 73.0 °F - 66.9 °F 81% 30.01 in 8.0 mi Calm Calm - N/A   Overcast
9:51 AM 73.9 °F - 66.0 °F 76% 30.01 in 9.0 mi Calm Calm - N/A   Overcast
10:51 AM 77.0 °F - 66.9 °F 71% 30.00 in 10.0 mi North - - N/A   Overcast
11:29 AM 79.0 °F - 68.0 °F 69% 30.03 in 10.0 mi Calm Calm - N/A   Overcast
11:51 AM 80.1 °F 82.7 °F 68.0 °F 67% 30.00 in 10.0 mi Calm Calm - N/A   Overcast
12:41 PM 81.0 °F 84.1 °F 69.1 °F 67% 30.03 in 10.0 mi Calm Calm - N/A   Overcast
12:51 PM 82.0 °F 85.5 °F 69.1 °F 65% 30.00 in 10.0 mi Variable 4.6 mph - N/A   Overcast
12:59 PM 82.0 °F 84.9 °F 68.0 °F 62% 30.03 in 10.0 mi Calm Calm - N/A   Overcast
1:33 PM 81.0 °F 84.1 °F 69.1 °F 67% 30.03 in 10.0 mi Variable 3.5 mph - N/A   Overcast
1:51 PM 81.0 °F 84.1 °F 69.1 °F 67% 30.00 in 10.0 mi Variable 3.5 mph - N/A   Overcast
2:05 PM 81.0 °F 84.1 °F 69.1 °F 67% 30.03 in 10.0 mi Variable 4.6 mph - N/A   Overcast
2:51 PM 81.0 °F 84.1 °F 69.1 °F 67% 29.99 in 9.0 mi East 3.5 mph - N/A   Overcast
3:51 PM 84.9 °F 89.4 °F 70.0 °F 61% 29.98 in 10.0 mi ESE 4.6 mph - N/A   Mostly Cloudy
4:51 PM 84.9 °F 89.4 °F 70.0 °F 61% 29.96 in 10.0 mi Calm Calm - N/A   Mostly Cloudy
5:51 PM 84.9 °F 89.4 °F 70.0 °F 61% 29.94 in 10.0 mi Variable 3.5 mph - N/A   Mostly Cloudy
6:51 PM 84.0 °F 88.4 °F 70.0 °F 63% 29.93 in 9.0 mi Variable 3.5 mph - N/A   Scattered Clouds
7:51 PM 82.0 °F 85.9 °F 70.0 °F 67% 29.93 in 9.0 mi East 3.5 mph - N/A   Clear
8:51 PM 80.1 °F 83.2 °F 70.0 °F 71% 29.94 in 9.0 mi East 3.5 mph - N/A   Clear
10:51 PM 78.1 °F - 70.0 °F 76% 29.97 in 8.0 mi Variable 3.5 mph - N/A   Clear
11:51 PM 75.9 °F - 70.0 °F 82% 29.97 in 8.0 mi East 4.6 mph - N/A   Clear